Content
SEND FEEDBACK

Daily
Averages
Monthly
Summary
United States of America

CANANDAIGUA, NEW YORK


Home > North America > United States > New York
Elevation: 720 feet     Latitude: 42 50N     Longitude: 077 16W

WEATHER
 
SELECT A DAY
Number of Records: 186,360;   Date Range: 12/10/97 - 7/20/14
 
SHARE

PRINT THIS DATA

[ ← Previous Day ]
WEATHER ALMANAC - JANUARY 23, 2013
[ Next Day → ]
[ °C ]   °F
Weather ElementAverageHighLow
Temperature7.8 °F14 °F (1:53 pm)1 °F (7:53 pm)
Dewpoint-1.1 °F3.9 °F (2:53 pm)-9 °F (3:53 am)
Humidity67.6 %83 % (7:53 pm)53 % (12:53 pm)
Barometer30.17 in30.24 in (9:53 am)30.11 in (2:21 pm)
Wind Speed6.5 mph13.8 mph (11:53 am)
Wind Gust17.3 mph (11:53 am)
Weather ElementAverage
Visibility9.3 mi
Wind DirectionSSE (154.8 °)

Weather ElementTotal
Precipitation---
Heating Degree Days57.5 (Base 65)
Averaged from 29 records on January 23, 2013
WEATHER CONDITIONS BREAKOUT
WIND DIRECTION BREAKOUT
WEATHER BY HOUR - JANUARY 23, 2013
[ °C ]   °F
Local TimeTemperatureDewpointHumidityBarometerVisibilityWind DirectionWind SpeedGust SpeedPrecipitationEventsConditions
1:53 AM5.0 °F-7.1 °F58 %30.18 in10.0 miWSW (240°)11.5 mphMostly Cloudy
2:53 AM3.9 °F-8.0 °F58 %30.19 in10.0 miSW (230°)8.1 mphClear
3:53 AM3.9 °F-9.0 °F55 %30.19 in10.0 miWSW (240°)11.5 mphScattered Clouds
4:53 AM3.9 °F-8.0 °F58 %30.19 inWest (260°)8.1 mphMostly Cloudy
5:53 AM3.9 °F-7.1 °F60 %30.20 in10.0 miWest (260°)8.1 mphClear
6:53 AM3.9 °F-6.0 °F64 %30.21 in10.0 miSW (230°)8.1 mphClear
7:53 AM3.9 °F-5.1 °F66 %30.21 in10.0 miWSW (250°)8.1 mphClear
8:53 AM6.1 °F-2.9 °F67 %30.22 in10.0 miWest (260°)11.5 mphClear
9:53 AM9.0 °F-0.9 °F64 %30.24 in10.0 miWSW (250°)11.5 mphPartly Cloudy
10:34 AM10.4 °F-0.4 °F62 %30.17 in10.0 miNW (310°)6.9 mphMostly Cloudy
10:53 AM10.0 °F-0.9 °F61 %30.24 in10.0 miWNW (300°)8.1 mphOvercast
11:14 AM10.4 °F-2.2 °F57 %30.16 in10.0 miWest (280°)8.1 mph0.00 inOvercast
11:53 AM10.9 °F-2.0 °F56 %30.21 in10.0 miWest (270°)13.8 mph17.3 mph0.00 inOvercast
12:53 PM12.0 °F-2.0 °F53 %30.19 in10.0 miVariable5.8 mph0.00 inOvercast
1:53 PM14.0 °F0.0 °F54 %30.17 in10.0 miVariable3.5 mphOvercast
2:21 PM10.4 °F3.2 °F73 %30.11 in9.0 miVariable4.6 mph0.00 inOvercast
2:53 PM10.0 °F3.9 °F76 %30.18 in7.0 miVariable4.6 mph0.00 inOvercast
3:06 PM10.4 °F3.2 °F73 %30.11 in7.0 miVariable3.5 mphOvercast
3:41 PM10.4 °F3.2 °F73 %30.11 in3.0 miENE (60°)4.6 mph0.00 inSnowLight Snow
3:49 PM10.4 °F3.2 °F73 %30.11 in6.0 miEast (80°)4.6 mph0.00 inHaze
3:53 PM10.0 °F3.0 °F73 %30.18 in8.0 miENE (70°)4.6 mph0.00 inOvercast
4:53 PM9.0 °F3.0 °F77 %30.18 in9.0 miEast (90°)3.5 mphOvercast
5:53 PM8.1 °F3.0 °F80 %30.17 in10.0 miCalmOvercast
6:53 PM6.1 °F1.0 °F80 %30.17 in10.0 miCalmOvercast
7:53 PM1.0 °F-2.9 °F83 %30.16 in10.0 miSouth (170°)5.8 mphClear
8:53 PM7.0 °F0.0 °F73 %30.14 in10.0 miSSW (200°)5.8 mphClear
9:53 PM6.1 °F1.9 °F83 %30.14 in10.0 miSSW (200°)5.8 mphClear
10:53 PM8.1 °F1.9 °F76 %30.14 in10.0 miWSW (240°)5.8 mphClear
11:53 PM8.1 °F1.0 °F73 %30.13 in10.0 miVariable3.5 mphClear
Hourly data recorded from KPEO, located miles away from Canandaigua, New York







STORIES FROM OUR PARTNERS